Year,Month,Day,Hour,Minute,Value (Times are PST for insolation in W/m^2)
2017,10,13,00,00,0.00
2017,10,13,00,01,0.00
2017,10,13,00,02,0.00
2017,10,13,00,03,0.00
2017,10,13,00,04,0.00
2017,10,13,00,05,0.00
2017,10,13,00,06,0.00
2017,10,13,00,07,0.00
2017,10,13,00,08,0.00
2017,10,13,00,09,0.00
2017,10,13,00,10,0.00
2017,10,13,00,11,0.00
2017,10,13,00,12,0.00
2017,10,13,00,13,0.00
2017,10,13,00,14,0.00
2017,10,13,00,15,0.00
2017,10,13,00,16,0.00
2017,10,13,00,17,0.00
2017,10,13,00,18,0.00
2017,10,13,00,19,0.00
2017,10,13,00,20,0.00
2017,10,13,00,21,0.00
2017,10,13,00,22,0.00
2017,10,13,00,23,0.00
2017,10,13,00,24,0.00
2017,10,13,00,25,0.00
2017,10,13,00,26,0.00
2017,10,13,00,27,0.00
2017,10,13,00,28,0.00
2017,10,13,00,29,0.00
2017,10,13,00,30,0.00
2017,10,13,00,31,0.00
2017,10,13,00,32,0.00
2017,10,13,00,33,0.00
2017,10,13,00,34,0.00
2017,10,13,00,35,0.00
2017,10,13,00,36,0.00
2017,10,13,00,37,0.00
2017,10,13,00,38,0.00
2017,10,13,00,39,0.00
2017,10,13,00,40,0.00
2017,10,13,00,41,0.00
2017,10,13,00,42,0.00
2017,10,13,00,43,0.00
2017,10,13,00,44,0.00
2017,10,13,00,45,0.00
2017,10,13,00,46,0.00
2017,10,13,00,47,0.00
2017,10,13,00,48,0.00
2017,10,13,00,49,0.00
2017,10,13,00,50,0.00
2017,10,13,00,51,0.00
2017,10,13,00,52,0.00
2017,10,13,00,53,0.00
2017,10,13,00,54,0.00
2017,10,13,00,55,0.00
2017,10,13,00,56,0.00
2017,10,13,00,57,0.00
2017,10,13,00,58,0.00
2017,10,13,00,59,0.00
2017,10,13,01,00,0.00
2017,10,13,01,01,0.00
2017,10,13,01,02,0.00
2017,10,13,01,03,0.00
2017,10,13,01,04,0.00
2017,10,13,01,05,0.00
2017,10,13,01,06,0.00
2017,10,13,01,07,0.00
2017,10,13,01,08,0.00
2017,10,13,01,09,0.00
2017,10,13,01,10,0.00
2017,10,13,01,11,0.00
2017,10,13,01,12,0.00
2017,10,13,01,13,0.00
2017,10,13,01,14,0.00
2017,10,13,01,15,0.00
2017,10,13,01,16,0.00
2017,10,13,01,17,0.00
2017,10,13,01,18,0.00
2017,10,13,01,19,0.00
2017,10,13,01,20,0.00
2017,10,13,01,21,0.00
2017,10,13,01,22,0.00
2017,10,13,01,23,0.00
2017,10,13,01,24,0.00
2017,10,13,01,25,0.00
2017,10,13,01,26,0.00
2017,10,13,01,27,0.00
2017,10,13,01,28,0.00
2017,10,13,01,29,0.00
2017,10,13,01,30,0.00
2017,10,13,01,31,0.00
2017,10,13,01,32,0.00
2017,10,13,01,33,0.00
2017,10,13,01,34,0.00
2017,10,13,01,35,0.00
2017,10,13,01,36,0.00
2017,10,13,01,37,0.00
2017,10,13,01,38,0.00
2017,10,13,01,39,0.00
2017,10,13,01,40,0.00
2017,10,13,01,41,0.00
2017,10,13,01,42,0.00
2017,10,13,01,43,0.00
2017,10,13,01,44,0.00
2017,10,13,01,45,0.00
2017,10,13,01,46,0.00
2017,10,13,01,47,0.00
2017,10,13,01,48,0.00
2017,10,13,01,49,0.00
2017,10,13,01,50,0.00
2017,10,13,01,51,0.00
2017,10,13,01,52,0.00
2017,10,13,01,53,0.00
2017,10,13,01,54,0.00
2017,10,13,01,55,0.00
2017,10,13,01,56,0.00
2017,10,13,01,57,0.00
2017,10,13,01,58,0.00
2017,10,13,01,59,0.00
2017,10,13,02,00,0.00
2017,10,13,02,01,0.00
2017,10,13,02,02,0.00
2017,10,13,02,03,0.00
2017,10,13,02,04,0.00
2017,10,13,02,05,0.00
2017,10,13,02,06,0.00
2017,10,13,02,07,0.00
2017,10,13,02,08,0.00
2017,10,13,02,09,0.00
2017,10,13,02,10,0.00
2017,10,13,02,11,0.00
2017,10,13,02,12,0.00
2017,10,13,02,13,0.00
2017,10,13,02,14,0.00
2017,10,13,02,15,0.00
2017,10,13,02,16,0.00
2017,10,13,02,17,0.00
2017,10,13,02,18,0.00
2017,10,13,02,19,0.00
2017,10,13,02,20,0.00
2017,10,13,02,21,0.00
2017,10,13,02,22,0.00
2017,10,13,02,23,0.00
2017,10,13,02,24,0.00
2017,10,13,02,25,0.00
2017,10,13,02,26,0.00
2017,10,13,02,27,0.00
2017,10,13,02,28,0.00
2017,10,13,02,29,0.00
2017,10,13,02,30,0.00
2017,10,13,02,31,0.00
2017,10,13,02,32,0.00
2017,10,13,02,33,0.00
2017,10,13,02,34,0.00
2017,10,13,02,35,0.00
2017,10,13,02,36,0.00
2017,10,13,02,37,0.00
2017,10,13,02,38,0.00
2017,10,13,02,39,0.00
2017,10,13,02,40,0.00
2017,10,13,02,41,0.00
2017,10,13,02,42,0.00
2017,10,13,02,43,0.00
2017,10,13,02,44,0.00
2017,10,13,02,45,0.00
2017,10,13,02,46,0.00
2017,10,13,02,47,0.00
2017,10,13,02,48,0.00
2017,10,13,02,49,0.00
2017,10,13,02,50,0.00
2017,10,13,02,51,0.00
2017,10,13,02,52,0.00
2017,10,13,02,53,0.00
2017,10,13,02,54,0.00
2017,10,13,02,55,0.00
2017,10,13,02,56,0.00
2017,10,13,02,57,0.00
2017,10,13,02,58,0.00
2017,10,13,02,59,0.00
2017,10,13,03,00,0.00
2017,10,13,03,01,0.00
2017,10,13,03,02,0.00
2017,10,13,03,03,0.00
2017,10,13,03,04,0.00
2017,10,13,03,05,0.00
2017,10,13,03,06,0.00
2017,10,13,03,07,0.00
2017,10,13,03,08,0.00
2017,10,13,03,09,0.00
2017,10,13,03,10,0.00
2017,10,13,03,11,0.00
2017,10,13,03,12,0.00
2017,10,13,03,13,0.00
2017,10,13,03,14,0.00
2017,10,13,03,15,0.00
2017,10,13,03,16,0.00
2017,10,13,03,17,0.00
2017,10,13,03,18,0.00
2017,10,13,03,19,0.00
2017,10,13,03,20,0.00
2017,10,13,03,21,0.00
2017,10,13,03,22,0.00
2017,10,13,03,23,0.00
2017,10,13,03,24,0.00
2017,10,13,03,25,0.00
2017,10,13,03,26,0.00
2017,10,13,03,27,0.00
2017,10,13,03,28,0.00
2017,10,13,03,29,0.00
2017,10,13,03,30,0.00
2017,10,13,03,31,0.00
2017,10,13,03,32,0.00
2017,10,13,03,33,0.00
2017,10,13,03,34,0.00
2017,10,13,03,35,0.00
2017,10,13,03,36,0.00
2017,10,13,03,37,0.00
2017,10,13,03,38,0.00
2017,10,13,03,39,0.00
2017,10,13,03,40,0.00
2017,10,13,03,41,0.00
2017,10,13,03,42,0.00
2017,10,13,03,43,0.00
2017,10,13,03,44,0.00
2017,10,13,03,45,0.00
2017,10,13,03,46,0.00
2017,10,13,03,47,0.00
2017,10,13,03,48,0.00
2017,10,13,03,49,0.00
2017,10,13,03,50,0.00
2017,10,13,03,51,0.00
2017,10,13,03,52,0.00
2017,10,13,03,53,0.00
2017,10,13,03,54,0.00
2017,10,13,03,55,0.00
2017,10,13,03,56,0.00
2017,10,13,03,57,0.00
2017,10,13,03,58,0.00
2017,10,13,03,59,0.00
2017,10,13,04,00,0.00
2017,10,13,04,01,0.00
2017,10,13,04,02,0.00
2017,10,13,04,03,0.00
2017,10,13,04,04,0.00
2017,10,13,04,05,0.00
2017,10,13,04,06,0.00
2017,10,13,04,07,0.00
2017,10,13,04,08,0.00
2017,10,13,04,09,0.00
2017,10,13,04,10,0.00
2017,10,13,04,11,0.00
2017,10,13,04,12,0.00
2017,10,13,04,13,0.00
2017,10,13,04,14,0.00
2017,10,13,04,15,0.00
2017,10,13,04,16,0.00
2017,10,13,04,17,0.00
2017,10,13,04,18,0.00
2017,10,13,04,19,0.00
2017,10,13,04,20,0.00
2017,10,13,04,21,0.00
2017,10,13,04,22,0.00
2017,10,13,04,23,0.00
2017,10,13,04,24,0.00
2017,10,13,04,25,0.00
2017,10,13,04,26,0.00
2017,10,13,04,27,0.00
2017,10,13,04,28,0.00
2017,10,13,04,29,0.00
2017,10,13,04,30,0.00
2017,10,13,04,31,0.00
2017,10,13,04,32,0.00
2017,10,13,04,33,0.00
2017,10,13,04,34,0.00
2017,10,13,04,35,0.00
2017,10,13,04,36,0.00
2017,10,13,04,37,0.00
2017,10,13,04,38,0.00
2017,10,13,04,39,0.00
2017,10,13,04,40,0.00
2017,10,13,04,41,0.00
2017,10,13,04,42,0.00
2017,10,13,04,43,0.00
2017,10,13,04,44,0.00
2017,10,13,04,45,0.00
2017,10,13,04,46,0.00
2017,10,13,04,47,0.00
2017,10,13,04,48,0.00
2017,10,13,04,49,0.00
2017,10,13,04,50,0.00
2017,10,13,04,51,0.00
2017,10,13,04,52,0.00
2017,10,13,04,53,0.00
2017,10,13,04,54,0.00
2017,10,13,04,55,0.00
2017,10,13,04,56,0.00
2017,10,13,04,57,0.00
2017,10,13,04,58,0.00
2017,10,13,04,59,0.00
2017,10,13,05,00,0.00
2017,10,13,05,01,0.00
2017,10,13,05,02,0.00
2017,10,13,05,03,0.00
2017,10,13,05,04,0.00
2017,10,13,05,05,0.00
2017,10,13,05,06,0.00
2017,10,13,05,07,0.00
2017,10,13,05,08,0.00
2017,10,13,05,09,0.00
2017,10,13,05,10,0.00
2017,10,13,05,11,0.00
2017,10,13,05,12,0.00
2017,10,13,05,13,0.00
2017,10,13,05,14,0.00
2017,10,13,05,15,0.00
2017,10,13,05,16,0.00
2017,10,13,05,17,0.00
2017,10,13,05,18,0.00
2017,10,13,05,19,0.00
2017,10,13,05,20,0.00
2017,10,13,05,21,0.00
2017,10,13,05,22,0.00
2017,10,13,05,23,0.00
2017,10,13,05,24,0.00
2017,10,13,05,25,0.00
2017,10,13,05,26,0.00
2017,10,13,05,27,0.00
2017,10,13,05,28,0.00
2017,10,13,05,29,0.00
2017,10,13,05,30,0.00
2017,10,13,05,31,0.00
2017,10,13,05,32,0.00
2017,10,13,05,33,0.00
2017,10,13,05,34,0.00
2017,10,13,05,35,0.00
2017,10,13,05,36,0.00
2017,10,13,05,37,0.00
2017,10,13,05,38,0.00
2017,10,13,05,39,0.00
2017,10,13,05,40,0.00
2017,10,13,05,41,0.00
2017,10,13,05,42,0.00
2017,10,13,05,43,0.00
2017,10,13,05,44,0.00
2017,10,13,05,45,0.00
2017,10,13,05,46,0.00
2017,10,13,05,47,0.00
2017,10,13,05,48,0.00
2017,10,13,05,49,0.00
2017,10,13,05,50,0.00
2017,10,13,05,51,0.00
2017,10,13,05,52,0.00
2017,10,13,05,53,0.00
2017,10,13,05,54,0.00
2017,10,13,05,55,0.00
2017,10,13,05,56,0.00
2017,10,13,05,57,0.00
2017,10,13,05,58,0.00
2017,10,13,05,59,0.00
2017,10,13,06,00,0.00
2017,10,13,06,01,0.00
2017,10,13,06,02,0.00
2017,10,13,06,03,0.00
2017,10,13,06,04,0.00
2017,10,13,06,05,0.00
2017,10,13,06,06,0.00
2017,10,13,06,07,0.00
2017,10,13,06,08,0.00
2017,10,13,06,09,0.00
2017,10,13,06,10,0.00
2017,10,13,06,11,0.00
2017,10,13,06,12,0.00
2017,10,13,06,13,0.00
2017,10,13,06,14,0.00
2017,10,13,06,15,0.00
2017,10,13,06,16,0.00
2017,10,13,06,17,0.00
2017,10,13,06,18,0.00
2017,10,13,06,19,0.00
2017,10,13,06,20,0.00
2017,10,13,06,21,0.00
2017,10,13,06,22,0.00
2017,10,13,06,23,0.00
2017,10,13,06,24,0.00
2017,10,13,06,25,0.00
2017,10,13,06,26,0.00
2017,10,13,06,27,0.00
2017,10,13,06,28,0.00
2017,10,13,06,29,0.00
2017,10,13,06,30,0.00
2017,10,13,06,31,0.00
2017,10,13,06,32,0.00
2017,10,13,06,33,0.00
2017,10,13,06,34,0.00
2017,10,13,06,35,0.00
2017,10,13,06,36,0.00
2017,10,13,06,37,0.00
2017,10,13,06,38,0.00
2017,10,13,06,39,0.00
2017,10,13,06,40,0.00
2017,10,13,06,41,0.00
2017,10,13,06,42,0.00
2017,10,13,06,43,0.00
2017,10,13,06,44,0.00
2017,10,13,06,45,0.00
2017,10,13,06,46,0.00
2017,10,13,06,47,0.00
2017,10,13,06,48,0.00
2017,10,13,06,49,0.00
2017,10,13,06,50,0.00
2017,10,13,06,51,0.00
2017,10,13,06,52,0.00
2017,10,13,06,53,0.00
2017,10,13,06,54,0.00
2017,10,13,06,55,0.00
2017,10,13,06,56,0.00
2017,10,13,06,57,0.00
2017,10,13,06,58,0.00
2017,10,13,06,59,0.00
2017,10,13,07,00,0.00
2017,10,13,07,01,0.00
2017,10,13,07,02,0.00
2017,10,13,07,03,0.00
2017,10,13,07,04,0.00
2017,10,13,07,05,0.00
2017,10,13,07,06,0.00
2017,10,13,07,07,0.00
2017,10,13,07,08,0.00
2017,10,13,07,09,0.00
2017,10,13,07,10,0.00
2017,10,13,07,11,0.00
2017,10,13,07,12,0.00
2017,10,13,07,13,0.00
2017,10,13,07,14,0.00
2017,10,13,07,15,0.00
2017,10,13,07,16,0.00
2017,10,13,07,17,0.00
2017,10,13,07,18,0.00
2017,10,13,07,19,0.00
2017,10,13,07,20,0.00
2017,10,13,07,21,0.00
2017,10,13,07,22,0.00
2017,10,13,07,23,0.00
2017,10,13,07,24,0.00
2017,10,13,07,25,0.00
2017,10,13,07,26,0.00
2017,10,13,07,27,0.00
2017,10,13,07,28,0.00
2017,10,13,07,29,0.00
2017,10,13,07,30,0.00
2017,10,13,07,31,0.00
2017,10,13,07,32,0.00
2017,10,13,07,33,0.00
2017,10,13,07,34,0.00
2017,10,13,07,35,0.00
2017,10,13,07,36,0.00
2017,10,13,07,37,0.00
2017,10,13,07,38,0.00
2017,10,13,07,39,0.00
2017,10,13,07,40,2.80
2017,10,13,07,41,5.00
2017,10,13,07,42,5.00
2017,10,13,07,43,5.00
2017,10,13,07,44,5.00
2017,10,13,07,45,5.10
2017,10,13,07,46,7.00
2017,10,13,07,47,7.00
2017,10,13,07,48,7.70
2017,10,13,07,49,9.00
2017,10,13,07,50,9.00
2017,10,13,07,51,9.00
2017,10,13,07,52,10.30
2017,10,13,07,53,11.00
2017,10,13,07,54,11.00
2017,10,13,07,55,11.00
2017,10,13,07,56,11.00
2017,10,13,07,57,11.10
2017,10,13,07,58,12.00
2017,10,13,07,59,12.00
2017,10,13,08,00,12.00
2017,10,13,08,01,13.00
2017,10,13,08,02,14.00
2017,10,13,08,03,15.30
2017,10,13,08,04,16.00
2017,10,13,08,05,16.00
2017,10,13,08,06,16.00
2017,10,13,08,07,18.00
2017,10,13,08,08,18.00
2017,10,13,08,09,18.00
2017,10,13,08,10,18.30
2017,10,13,08,11,19.80
2017,10,13,08,12,21.00
2017,10,13,08,13,22.20
2017,10,13,08,14,23.00
2017,10,13,08,15,24.50
2017,10,13,08,16,25.00
2017,10,13,08,17,25.00
2017,10,13,08,18,30.10
2017,10,13,08,19,32.20
2017,10,13,08,20,33.00
2017,10,13,08,21,33.00
2017,10,13,08,22,35.40
2017,10,13,08,23,39.50
2017,10,13,08,24,40.00
2017,10,13,08,25,42.70
2017,10,13,08,26,44.00
2017,10,13,08,27,44.00
2017,10,13,08,28,48.60
2017,10,13,08,29,51.00
2017,10,13,08,30,51.00
2017,10,13,08,31,51.00
2017,10,13,08,32,51.00
2017,10,13,08,33,51.00
2017,10,13,08,34,57.20
2017,10,13,08,35,63.00
2017,10,13,08,36,65.70
2017,10,13,08,37,68.50
2017,10,13,08,38,69.80
2017,10,13,08,39,73.70
2017,10,13,08,40,74.20
2017,10,13,08,41,77.30
2017,10,13,08,42,79.50
2017,10,13,08,43,81.00
2017,10,13,08,44,83.00
2017,10,13,08,45,86.00
2017,10,13,08,46,86.00
2017,10,13,08,47,86.00
2017,10,13,08,48,86.00
2017,10,13,08,49,86.00
2017,10,13,08,50,99.00
2017,10,13,08,51,102.20
2017,10,13,08,52,105.00
2017,10,13,08,53,106.60
2017,10,13,08,54,111.00
2017,10,13,08,55,111.00
2017,10,13,08,56,111.00
2017,10,13,08,57,116.30
2017,10,13,08,58,120.00
2017,10,13,08,59,125.20
2017,10,13,09,00,127.00
2017,10,13,09,01,131.60
2017,10,13,09,02,134.00
2017,10,13,09,03,134.70
2017,10,13,09,04,139.70
2017,10,13,09,05,142.00
2017,10,13,09,06,143.60
2017,10,13,09,07,147.40
2017,10,13,09,08,149.00
2017,10,13,09,09,153.00
2017,10,13,09,10,155.00
2017,10,13,09,11,159.10
2017,10,13,09,12,162.70
2017,10,13,09,13,163.70
2017,10,13,09,14,169.40
2017,10,13,09,15,171.30
2017,10,13,09,16,172.00
2017,10,13,09,17,174.70
2017,10,13,09,18,178.50
2017,10,13,09,19,179.00
2017,10,13,09,20,179.00
2017,10,13,09,21,186.00
2017,10,13,09,22,189.70
2017,10,13,09,23,191.90
2017,10,13,09,24,195.10
2017,10,13,09,25,197.60
2017,10,13,09,26,200.00
2017,10,13,09,27,202.00
2017,10,13,09,28,207.30
2017,10,13,09,29,210.00
2017,10,13,09,30,212.80
2017,10,13,09,31,215.30
2017,10,13,09,32,216.00
2017,10,13,09,33,220.30
2017,10,13,09,34,221.00
2017,10,13,09,35,227.20
2017,10,13,09,36,230.30
2017,10,13,09,37,232.90
2017,10,13,09,38,236.30
2017,10,13,09,39,237.00
2017,10,13,09,40,239.90
2017,10,13,09,41,243.00
2017,10,13,09,42,243.00
2017,10,13,09,43,243.00
2017,10,13,09,44,251.10
2017,10,13,09,45,253.00
2017,10,13,09,46,257.00
2017,10,13,09,47,257.70
2017,10,13,09,48,262.00
2017,10,13,09,49,262.00
2017,10,13,09,50,264.90
2017,10,13,09,51,270.00
2017,10,13,09,52,271.00
2017,10,13,09,53,273.00
2017,10,13,09,54,275.50
2017,10,13,09,55,276.00
2017,10,13,09,56,276.00
2017,10,13,09,57,276.70
2017,10,13,09,58,285.00
2017,10,13,09,59,285.00
2017,10,13,10,00,285.00
2017,10,13,10,01,289.00
2017,10,13,10,02,294.50
2017,10,13,10,03,296.20
2017,10,13,10,04,297.00
2017,10,13,10,05,297.00
2017,10,13,10,06,297.00
2017,10,13,10,07,305.30
2017,10,13,10,08,306.20
2017,10,13,10,09,309.40
2017,10,13,10,10,311.50
2017,10,13,10,11,313.70
2017,10,13,10,12,315.00
2017,10,13,10,13,315.00
2017,10,13,10,14,319.10
2017,10,13,10,15,322.00
2017,10,13,10,16,324.30
2017,10,13,10,17,325.00
2017,10,13,10,18,328.70
2017,10,13,10,19,330.00
2017,10,13,10,20,330.00
2017,10,13,10,21,330.00
2017,10,13,10,22,330.00
2017,10,13,10,23,333.70
2017,10,13,10,24,341.10
2017,10,13,10,25,344.20
2017,10,13,10,26,345.00
2017,10,13,10,27,347.20
2017,10,13,10,28,349.60
2017,10,13,10,29,350.00
2017,10,13,10,30,353.10
2017,10,13,10,31,355.30
2017,10,13,10,32,357.50
2017,10,13,10,33,359.00
2017,10,13,10,34,360.20
2017,10,13,10,35,363.00
2017,10,13,10,36,364.00
2017,10,13,10,37,366.00
2017,10,13,10,38,368.50
2017,10,13,10,39,369.00
2017,10,13,10,40,369.00
2017,10,13,10,41,374.10
2017,10,13,10,42,376.30
2017,10,13,10,43,378.50
2017,10,13,10,44,380.30
2017,10,13,10,45,381.00
2017,10,13,10,46,381.00
2017,10,13,10,47,381.00
2017,10,13,10,48,385.70
2017,10,13,10,49,389.50
2017,10,13,10,50,391.60
2017,10,13,10,51,392.00
2017,10,13,10,52,392.30
2017,10,13,10,53,396.00
2017,10,13,10,54,396.00
2017,10,13,10,55,397.70
2017,10,13,10,56,401.80
2017,10,13,10,57,403.50
2017,10,13,10,58,405.20
2017,10,13,10,59,406.00
2017,10,13,11,00,406.00
2017,10,13,11,01,409.30
2017,10,13,11,02,410.00
2017,10,13,11,03,413.00
2017,10,13,11,04,413.60
2017,10,13,11,05,417.00
2017,10,13,11,06,418.00
2017,10,13,11,07,420.00
2017,10,13,11,08,420.00
2017,10,13,11,09,420.00
2017,10,13,11,10,423.30
2017,10,13,11,11,426.50
2017,10,13,11,12,428.60
2017,10,13,11,13,429.00
2017,10,13,11,14,432.00
2017,10,13,11,15,432.00
2017,10,13,11,16,432.50
2017,10,13,11,17,434.70
2017,10,13,11,18,436.00
2017,10,13,11,19,437.00
2017,10,13,11,20,438.00
2017,10,13,11,21,440.00
2017,10,13,11,22,442.50
2017,10,13,11,23,443.00
2017,10,13,11,24,443.00
2017,10,13,11,25,445.90
2017,10,13,11,26,446.30
2017,10,13,11,27,448.50
2017,10,13,11,28,450.70
2017,10,13,11,29,452.00
2017,10,13,11,30,453.00
2017,10,13,11,31,454.00
2017,10,13,11,32,454.00
2017,10,13,11,33,454.00
2017,10,13,11,34,454.00
2017,10,13,11,35,458.40
2017,10,13,11,36,461.00
2017,10,13,11,37,462.00
2017,10,13,11,38,462.00
2017,10,13,11,39,462.00
2017,10,13,11,40,462.00
2017,10,13,11,41,462.00
2017,10,13,11,42,465.90
2017,10,13,11,43,470.30
2017,10,13,11,44,472.50
2017,10,13,11,45,474.60
2017,10,13,11,46,475.00
2017,10,13,11,47,475.20
2017,10,13,11,48,478.00
2017,10,13,11,49,478.50
2017,10,13,11,50,480.00
2017,10,13,11,51,480.80
2017,10,13,11,52,481.00
2017,10,13,11,53,480.00
2017,10,13,11,54,480.00
2017,10,13,11,55,480.00
2017,10,13,11,56,480.00
2017,10,13,11,57,482.80
2017,10,13,11,58,485.00
2017,10,13,11,59,485.40
2017,10,13,12,00,487.00
2017,10,13,12,01,487.00
2017,10,13,12,02,487.00
2017,10,13,12,03,488.60
2017,10,13,12,04,490.00
2017,10,13,12,05,490.00
2017,10,13,12,06,490.00
2017,10,13,12,07,491.70
2017,10,13,12,08,493.90
2017,10,13,12,09,494.00
2017,10,13,12,10,494.40
2017,10,13,12,11,496.30
2017,10,13,12,12,497.00
2017,10,13,12,13,497.80
2017,10,13,12,14,499.00
2017,10,13,12,15,499.00
2017,10,13,12,16,499.00
2017,10,13,12,17,500.50
2017,10,13,12,18,501.00
2017,10,13,12,19,501.00
2017,10,13,12,20,501.00
2017,10,13,12,21,501.30
2017,10,13,12,22,503.00
2017,10,13,12,23,503.30
2017,10,13,12,24,504.00
2017,10,13,12,25,504.00
2017,10,13,12,26,504.00
2017,10,13,12,27,505.30
2017,10,13,12,28,506.00
2017,10,13,12,29,507.60
2017,10,13,12,30,508.00
2017,10,13,12,31,508.00
2017,10,13,12,32,508.00
2017,10,13,12,33,508.00
2017,10,13,12,34,508.70
2017,10,13,12,35,510.00
2017,10,13,12,36,510.00
2017,10,13,12,37,510.00
2017,10,13,12,38,510.00
2017,10,13,12,39,510.00
2017,10,13,12,40,511.60
2017,10,13,12,41,512.00
2017,10,13,12,42,512.00
2017,10,13,12,43,512.10
2017,10,13,12,44,513.00
2017,10,13,12,45,513.70
2017,10,13,12,46,514.20
2017,10,13,12,47,513.00
2017,10,13,12,48,513.00
2017,10,13,12,49,513.00
2017,10,13,12,50,513.00
2017,10,13,12,51,513.00
2017,10,13,12,52,513.00
2017,10,13,12,53,513.00
2017,10,13,12,54,513.00
2017,10,13,12,55,513.90
2017,10,13,12,56,517.00
2017,10,13,12,57,516.20
2017,10,13,12,58,515.00
2017,10,13,12,59,515.00
2017,10,13,13,00,516.30
2017,10,13,13,01,518.50
2017,10,13,13,02,517.40
2017,10,13,13,03,517.00
2017,10,13,13,04,517.00
2017,10,13,13,05,517.00
2017,10,13,13,06,517.00
2017,10,13,13,07,520.00
2017,10,13,13,08,522.30
2017,10,13,13,09,517.00
2017,10,13,13,10,515.80
2017,10,13,13,11,516.30
2017,10,13,13,12,517.00
2017,10,13,13,13,517.00
2017,10,13,13,14,517.00
2017,10,13,13,15,517.00
2017,10,13,13,16,516.70
2017,10,13,13,17,515.00
2017,10,13,13,18,515.00
2017,10,13,13,19,515.00
2017,10,13,13,20,515.00
2017,10,13,13,21,515.00
2017,10,13,13,22,515.00
2017,10,13,13,23,515.00
2017,10,13,13,24,515.00
2017,10,13,13,25,515.00
2017,10,13,13,26,515.00
2017,10,13,13,27,515.00
2017,10,13,13,28,515.00
2017,10,13,13,29,515.00
2017,10,13,13,30,514.20
2017,10,13,13,31,513.00
2017,10,13,13,32,514.20
2017,10,13,13,33,515.00
2017,10,13,13,34,515.00
2017,10,13,13,35,515.00
2017,10,13,13,36,515.00
2017,10,13,13,37,512.00
2017,10,13,13,38,512.00
2017,10,13,13,39,511.50
2017,10,13,13,40,510.00
2017,10,13,13,41,510.00
2017,10,13,13,42,509.00
2017,10,13,13,43,508.00
2017,10,13,13,44,508.00
2017,10,13,13,45,508.00
2017,10,13,13,46,508.00
2017,10,13,13,47,506.20
2017,10,13,13,48,506.00
2017,10,13,13,49,506.00
2017,10,13,13,50,505.60
2017,10,13,13,51,504.00
2017,10,13,13,52,504.00
2017,10,13,13,53,504.00
2017,10,13,13,54,503.40
2017,10,13,13,55,501.70
2017,10,13,13,56,499.40
2017,10,13,13,57,499.00
2017,10,13,13,58,499.00
2017,10,13,13,59,498.80
2017,10,13,14,00,497.00
2017,10,13,14,01,497.00
2017,10,13,14,02,496.70
2017,10,13,14,03,496.00
2017,10,13,14,04,495.00
2017,10,13,14,05,494.00
2017,10,13,14,06,494.00
2017,10,13,14,07,492.40
2017,10,13,14,08,492.00
2017,10,13,14,09,492.00
2017,10,13,14,10,490.00
2017,10,13,14,11,490.00
2017,10,13,14,12,490.00
2017,10,13,14,13,488.30
2017,10,13,14,14,485.00
2017,10,13,14,15,485.00
2017,10,13,14,16,485.00
2017,10,13,14,17,483.00
2017,10,13,14,18,482.00
2017,10,13,14,19,480.30
2017,10,13,14,20,480.00
2017,10,13,14,21,478.00
2017,10,13,14,22,478.00
2017,10,13,14,23,477.50
2017,10,13,14,24,475.70
2017,10,13,14,25,475.00
2017,10,13,14,26,475.00
2017,10,13,14,27,473.80
2017,10,13,14,28,471.70
2017,10,13,14,29,471.00
2017,10,13,14,30,471.00
2017,10,13,14,31,471.00
2017,10,13,14,32,470.40
2017,10,13,14,33,465.60
2017,10,13,14,34,464.00
2017,10,13,14,35,464.00
2017,10,13,14,36,463.10
2017,10,13,14,37,462.00
2017,10,13,14,38,462.00
2017,10,13,14,39,460.00
2017,10,13,14,40,459.00
2017,10,13,14,41,457.40
2017,10,13,14,42,455.10
2017,10,13,14,43,455.00
2017,10,13,14,44,454.40
2017,10,13,14,45,452.00
2017,10,13,14,46,452.00
2017,10,13,14,47,452.00
2017,10,13,14,48,452.00
2017,10,13,14,49,448.70
2017,10,13,14,50,445.30
2017,10,13,14,51,443.50
2017,10,13,14,52,441.40
2017,10,13,14,53,441.00
2017,10,13,14,54,441.00
2017,10,13,14,55,441.00
2017,10,13,14,56,441.00
2017,10,13,14,57,441.00
2017,10,13,14,58,437.00
2017,10,13,14,59,432.00
2017,10,13,15,00,430.20
2017,10,13,15,01,429.00
2017,10,13,15,02,429.00
2017,10,13,15,03,429.00
2017,10,13,15,04,424.40
2017,10,13,15,05,421.90
2017,10,13,15,06,420.00
2017,10,13,15,07,419.20
2017,10,13,15,08,417.00
2017,10,13,15,09,417.00
2017,10,13,15,10,413.90
2017,10,13,15,11,411.00
2017,10,13,15,12,410.30
2017,10,13,15,13,408.50
2017,10,13,15,14,408.00
2017,10,13,15,15,404.40
2017,10,13,15,16,404.00
2017,10,13,15,17,404.00
2017,10,13,15,18,404.00
2017,10,13,15,19,401.70
2017,10,13,15,20,396.60
2017,10,13,15,21,395.00
2017,10,13,15,22,392.90
2017,10,13,15,23,390.70
2017,10,13,15,24,390.00
2017,10,13,15,25,390.00
2017,10,13,15,26,387.30
2017,10,13,15,27,386.70
2017,10,13,15,28,382.70
2017,10,13,15,29,380.70
2017,10,13,15,30,380.00
2017,10,13,15,31,378.40
2017,10,13,15,32,376.00
2017,10,13,15,33,376.00
2017,10,13,15,34,372.70
2017,10,13,15,35,371.00
2017,10,13,15,36,367.60
2017,10,13,15,37,366.10
2017,10,13,15,38,363.90
2017,10,13,15,39,362.00
2017,10,13,15,40,362.00
2017,10,13,15,41,360.30
2017,10,13,15,42,357.00
2017,10,13,15,43,354.90
2017,10,13,15,44,353.00
2017,10,13,15,45,349.70
2017,10,13,15,46,348.00
2017,10,13,15,47,345.40
2017,10,13,15,48,345.00
2017,10,13,15,49,345.00
2017,10,13,15,50,344.00
2017,10,13,15,51,338.00
2017,10,13,15,52,336.70
2017,10,13,15,53,334.00
2017,10,13,15,54,333.00
2017,10,13,15,55,332.00
2017,10,13,15,56,328.70
2017,10,13,15,57,327.00
2017,10,13,15,58,323.70
2017,10,13,15,59,322.10
2017,10,13,16,00,321.70
2017,10,13,16,01,318.00
2017,10,13,16,02,317.20
2017,10,13,16,03,313.70
2017,10,13,16,04,311.00
2017,10,13,16,05,311.00
2017,10,13,16,06,308.10
2017,10,13,16,07,304.70
2017,10,13,16,08,302.50
2017,10,13,16,09,301.20
2017,10,13,16,10,297.40
2017,10,13,16,11,294.90
2017,10,13,16,12,293.40
2017,10,13,16,13,290.00
2017,10,13,16,14,289.00
2017,10,13,16,15,285.40
2017,10,13,16,16,282.00
2017,10,13,16,17,279.90
2017,10,13,16,18,277.00
2017,10,13,16,19,274.50
2017,10,13,16,20,274.00
2017,10,13,16,21,274.00
2017,10,13,16,22,266.70
2017,10,13,16,23,263.70
2017,10,13,16,24,261.10
2017,10,13,16,25,258.00
2017,10,13,16,26,258.00
2017,10,13,16,27,254.60
2017,10,13,16,28,251.00
2017,10,13,16,29,251.00
2017,10,13,16,30,250.20
2017,10,13,16,31,250.00
2017,10,13,16,32,250.90
2017,10,13,16,33,250.90
2017,10,13,16,34,249.60
2017,10,13,16,35,247.50
2017,10,13,16,36,246.00
2017,10,13,16,37,244.00
2017,10,13,16,38,240.00
2017,10,13,16,39,237.20
2017,10,13,16,40,232.00
2017,10,13,16,41,230.00
2017,10,13,16,42,230.00
2017,10,13,16,43,218.90
2017,10,13,16,44,213.80
2017,10,13,16,45,210.60
2017,10,13,16,46,209.00
2017,10,13,16,47,208.30
2017,10,13,16,48,207.00
2017,10,13,16,49,156.20
2017,10,13,16,50,157.00
2017,10,13,16,51,190.00
2017,10,13,16,52,190.00
2017,10,13,16,53,190.00
2017,10,13,16,54,190.00
2017,10,13,16,55,125.40
2017,10,13,16,56,107.70
2017,10,13,16,57,121.20
2017,10,13,16,58,118.30
2017,10,13,16,59,121.80
2017,10,13,17,00,120.00
2017,10,13,17,01,88.60
2017,10,13,17,02,56.30
2017,10,13,17,03,45.80
2017,10,13,17,04,42.30
2017,10,13,17,05,42.00
2017,10,13,17,06,42.00
2017,10,13,17,07,42.00
2017,10,13,17,08,43.30
2017,10,13,17,09,44.70
2017,10,13,17,10,40.80
2017,10,13,17,11,39.40
2017,10,13,17,12,35.80
2017,10,13,17,13,35.00
2017,10,13,17,14,32.70
2017,10,13,17,15,30.30
2017,10,13,17,16,30.00
2017,10,13,17,17,28.00
2017,10,13,17,18,27.60